Regional Weather Roundup
Issued by NWS

Home | Current Version | Previous Version | Graphics & Text | Print | Product List | Glossary On
Versions: 1 2 3 4 5 6 7 8 9 10 11 12 13 14 15 16 17 18 19 20 21 22 23 24 25 26 27 28 29 30 31 32 33 34 35 36 37 38 39 40 41 42 43 44 45 46 47 48 49 50
967
ASUS43 KLMK 070510
RWRKY
KENTUCKY REGIONAL WEATHER ROUNDUP
NATIONAL WEATHER SERVICE LOUISVILLE KY
1200 AM EST SUN FEB 07 2016

NOTE "FAIR" INDICATES FEW OR NO CLOUDS BELOW 12,000 FEET
WITH NO SIGNIFICANT WEATHER AND/OR OBSTRUCTIONS TO VISIBILITY.

KYZ001>023-026-027-061>063-070>075-070600-
WESTERN AND SOUTH CENTRAL KENTUCKY

CITY           SKY/WX    TMP DP  RH WIND       PRES   REMARKS
PADUCAH        CLEAR     40  22  48 SW6       30.25F
HENDERSON      CLEAR     34  21  60 SW7       30.24S WCI  28
OWENSBORO      CLEAR     36  27  70 CALM      30.25F
HOPKINSVILLE   CLEAR     35  21  58 SW3       30.27S
BOWLING GREEN  PTCLDY    33  23  66 CALM      30.27F
GLASGOW        CLEAR     30  25  81 CALM      30.26F
$$

KYZ024-025-028>034-038-045-046-053-070600-
NORTH CENTRAL KENTUCKY

CITY           SKY/WX    TMP DP  RH WIND       PRES   REMARKS
LOUISVILLE/SDF PTCLDY    36  24  62 SE3       30.23F
LOUISVILLE/LOU PTCLDY    35  26  69 CALM      30.24F
FORT KNOX      PTCLDY    33  22  65 S5        30.22F WCI  28
$$

KYZ035>037-039>044-047>052-055>060-089>105-070600-
NORTHEAST KENTUCKY

CITY           SKY/WX    TMP DP  RH WIND       PRES   REMARKS
LEXINGTON      CLEAR     29  23  78 S6        30.24S WCI  23
COVINGTON      CLEAR     34  23  64 S7        30.21F WCI  28
FRANKFORT      CLEAR     27  21  78 CALM      30.23F
$$

KYZ054-064>069-076>088-106>120-070600-
SOUTHEAST KENTUCKY

CITY           SKY/WX    TMP DP  RH WIND       PRES   REMARKS
JACKSON        CLEAR     37  20  50 SW3       30.23F
LONDON         CLEAR     29  22  75 CALM      30.25F
SOMERSET       CLEAR     30  23  74 CALM      30.27F
MIDDLESBORO    PTCLDY    31  27  84 CALM      30.26F
MONTICELLO     CLEAR     25  22  88 CALM      30.28F
$$





USA.gov is the U.S. government's official web portal to all federal, state and local government web resources and services.